Date String (YYYY-MM-DD hh:mm:ss) UTC,Instrument flags,absolute air pressure of the measurement (hPa),sample flow rate (lpm),inlet stack bypass flow (lpm),air temperature of the measurement (°C),ambient temperature measured by the external sensor (°C),aerosol sample conditioner tube jacket temperature (°C),OPC LED temperature (°C),internal box temperature (°C),relative humidity of the measurement (%),span deviation,mass concentration of particles derived from Lorenz-Mie calculation of OPC scattering (μg/m³),mass concentration of particles derived from Lorenz-Mie calculation of OPC scattering (μg/m³),mass concentration of particles derived from Lorenz-Mie calculation of OPC scattering (μg/m³)
DateTimeUTC,F1_M11,P_M11,Q1_M11,Q2_M11,T1_M11,T2_M11,T3_M11,T4_M11,T5_M11,U1_M11,ZSPAN_M11,X0_M11,X2_M11,X1_M11
2023-07-16 15:00:00,SystemResetWarning,0836.3,5.00,000.00,029.3,028.1,000.0,037.8,031.0,28.2,-000.0,0017.79,0010.27,0009.70
2023-07-16 15:01:00,SystemResetWarning,0836.3,5.00,000.00,029.4,028.2,000.0,037.8,031.0,28.0,-000.1,0018.72,0010.27,0009.71
2023-07-16 15:02:00,SystemResetWarning,0836.3,4.99,000.00,029.4,027.8,000.0,037.7,031.1,28.3,0000.1,0018.75,0010.36,0009.76
2023-07-16 15:03:00,SystemResetWarning,0836.3,5.00,000.00,029.4,026.1,000.0,037.6,030.8,28.3,0000.2,0019.06,0010.53,0009.84
2023-07-16 15:04:00,SystemResetWarning,0836.3,5.01,000.00,029.3,025.1,000.0,037.5,030.5,28.2,0000.4,0019.59,0010.61,0009.87
2023-07-16 15:05:00,SystemResetWarning,0836.2,5.01,000.00,029.2,025.3,000.0,037.5,030.4,28.1,0000.4,0019.45,0010.60,0009.87
2023-07-16 15:06:00,SystemResetWarning,0836.3,5.00,000.00,029.1,025.7,000.0,037.5,030.4,28.3,0000.5,0019.93,0010.59,0009.86
2023-07-16 15:07:00,SystemResetWarning,0836.2,4.99,000.00,029.1,026.1,000.0,037.6,030.4,28.8,0000.3,0021.09,0010.61,0009.88
2023-07-16 15:08:00,SystemResetWarning,0836.3,5.01,000.00,029.1,026.5,000.0,037.6,030.5,28.5,0000.2,0021.24,0010.69,0009.92
2023-07-16 15:09:00,SystemResetWarning,0836.3,5.01,000.00,029.1,026.8,000.0,037.6,030.6,28.6,0000.2,0020.44,0010.76,0009.97
2023-07-16 15:10:00,SystemResetWarning,0836.3,5.00,000.00,029.1,027.1,000.0,037.6,030.7,28.4,0000.4,0020.39,0010.91,0010.06
2023-07-16 15:11:00,SystemResetWarning,0836.4,5.00,000.00,029.1,027.4,000.0,037.6,030.7,28.4,0000.6,0019.99,0010.95,0010.11
2023-07-16 15:12:00,SystemResetWarning,0836.4,5.00,000.00,029.2,027.6,000.0,037.6,030.8,29.0,0000.6,0019.28,0011.02,0010.17
2023-07-16 15:13:00,SystemResetWarning,0836.4,5.00,000.00,029.2,027.8,000.0,037.6,030.9,29.4,0000.4,0019.20,0011.11,0010.24
2023-07-16 15:14:00,SystemResetWarning,0836.4,5.00,000.00,029.2,027.9,000.0,037.7,030.9,28.3,0000.4,0019.40,0011.10,0010.30
2023-07-16 15:15:00,SystemResetWarning,0836.4,5.00,000.00,029.3,028.0,000.0,037.7,031.0,28.1,0000.3,0019.10,0011.13,0010.34
2023-07-16 15:16:00,SystemResetWarning,0836.4,4.99,000.00,029.3,027.5,000.0,037.6,030.9,28.7,0000.1,0020.55,0011.18,0010.40
2023-07-16 15:17:00,SystemResetWarning,0836.4,5.00,000.00,029.3,025.8,000.0,037.5,030.7,28.6,0000.2,0021.04,0011.21,0010.46
2023-07-16 15:18:00,SystemResetWarning,0836.3,5.01,000.00,029.2,025.1,000.0,037.4,030.5,28.9,-000.0,0019.67,0011.26,0010.48
2023-07-16 15:19:00,SystemResetWarning,0836.3,5.01,000.00,029.1,025.3,000.0,037.4,030.3,29.2,-000.4,0019.58,0011.23,0010.45
2023-07-16 15:20:00,SystemResetWarning,0836.3,4.99,000.00,029.0,025.7,000.0,037.5,030.3,28.9,-000.4,0019.67,0011.26,0010.43
2023-07-16 15:21:00,SystemResetWarning,0836.3,5.00,000.00,029.0,026.1,000.0,037.5,030.4,29.1,-000.4,0019.44,0011.17,0010.39
2023-07-16 15:22:00,SystemResetWarning,0836.3,5.00,000.00,029.0,026.5,000.0,037.5,030.5,29.1,-000.4,0019.33,0011.13,0010.36
2023-07-16 15:23:00,SystemResetWarning,0836.3,5.00,000.00,029.0,026.9,000.0,037.5,030.6,28.9,-000.3,0019.19,0011.11,0010.33
2023-07-16 15:24:00,SystemResetWarning,0836.3,5.00,000.00,029.1,027.1,000.0,037.5,030.6,29.7,-000.4,0019.01,0011.04,0010.26
2023-07-16 15:25:00,SystemResetWarning,0836.4,5.00,000.00,029.1,027.4,000.0,037.5,030.7,29.3,-000.5,0018.35,0010.96,0010.18
2023-07-16 15:26:00,SystemResetWarning,0836.3,5.00,000.00,029.1,027.6,000.0,037.5,030.8,29.7,-000.6,0018.23,0010.90,0010.14
2023-07-16 15:27:00,SystemResetWarning,0836.3,5.00,000.00,029.2,027.8,000.0,037.6,030.8,29.2,-000.5,0017.13,0010.85,0010.12
2023-07-16 15:28:00,SystemResetWarning,0836.3,5.00,000.00,029.2,027.9,000.0,037.6,030.9,28.9,-000.5,0017.02,0010.87,0010.14
2023-07-16 15:29:00,SystemResetWarning,0836.3,5.00,000.00,029.2,027.8,000.0,037.6,030.9,27.4,-000.1,0017.22,0010.92,0010.22
2023-07-16 15:30:00,SystemResetWarning,0836.3,4.99,000.00,029.2,026.3,000.0,037.5,030.8,27.1,0000.1,0016.94,0010.98,0010.31
2023-07-16 15:31:00,SystemResetWarning,0836.3,5.02,000.00,029.1,025.2,000.0,037.4,030.5,27.6,0000.3,0017.44,0011.02,0010.39
2023-07-16 15:32:00,SystemResetWarning,0836.2,5.01,000.00,029.1,025.2,000.0,037.3,030.4,28.3,0000.4,0017.58,0011.10,0010.47
2023-07-16 15:33:00,SystemResetWarning,0836.2,5.00,000.00,029.0,025.6,000.0,037.4,030.3,29.0,0000.2,0018.08,0011.16,0010.51
2023-07-16 15:34:00,SystemResetWarning,0836.2,5.00,000.00,029.0,026.0,000.0,037.4,030.4,29.0,-000.0,0018.95,0011.21,0010.56
2023-07-16 15:35:00,SystemResetWarning,0836.2,5.00,000.00,029.0,026.4,000.0,037.4,030.4,29.3,0000.0,0018.91,0011.21,0010.58
2023-07-16 15:36:00,SystemResetWarning,0836.2,5.00,000.00,029.0,026.7,000.0,037.4,030.5,28.3,0000.0,0019.73,0011.26,0010.63
2023-07-16 15:37:00,SystemResetWarning,0836.2,5.00,000.00,029.0,027.1,000.0,037.4,030.6,28.1,0000.1,0019.81,0011.35,0010.66
2023-07-16 15:38:00,SystemResetWarning,0836.2,5.01,000.00,029.0,027.3,000.0,037.5,030.7,27.9,-000.0,0020.01,0011.46,0010.68
2023-07-16 15:39:00,SystemResetWarning,0836.2,4.99,000.00,029.1,027.5,000.0,037.5,030.7,27.9,-000.1,0019.70,0011.43,0010.65
2023-07-16 15:40:00,SystemResetWarning,0836.2,4.98,000.00,029.1,027.7,000.0,037.5,030.8,28.2,-000.3,0019.40,0011.31,0010.54
2023-07-16 15:41:00,SystemResetWarning,0836.2,5.00,000.00,029.1,027.9,000.0,037.5,030.8,28.5,-000.4,0019.87,0011.23,0010.45
2023-07-16 15:42:00,SystemResetWarning,0836.2,5.00,000.00,029.2,027.5,000.0,037.5,030.8,28.9,-000.6,0019.54,0011.15,0010.39
2023-07-16 15:43:00,SystemResetWarning,0836.1,5.00,000.00,029.1,025.9,000.0,037.4,030.6,29.6,-000.5,0019.44,0011.06,0010.32
2023-07-16 15:44:00,SystemResetWarning,0836.1,5.00,000.00,029.1,025.0,000.0,037.3,030.4,30.1,-000.4,0019.05,0011.06,0010.32
2023-07-16 15:45:00,SystemResetWarning,0836.1,5.02,000.00,029.0,025.2,000.0,037.3,030.3,29.7,-000.3,0018.42,0011.06,0010.32
2023-07-16 15:46:00,SystemResetWarning,0836.1,4.99,000.00,028.9,025.6,000.0,037.3,030.2,30.3,-000.2,0018.58,0011.13,0010.35
2023-07-16 15:47:00,SystemResetWarning,0836.1,5.00,000.00,028.9,026.0,000.0,037.4,030.3,30.6,-000.1,0018.16,0011.17,0010.37
2023-07-16 15:48:00,SystemResetWarning,0836.1,5.01,000.00,028.9,026.4,000.0,037.4,030.4,30.6,-000.2,0018.14,0011.19,0010.41
2023-07-16 15:49:00,SystemResetWarning,0836.1,5.00,000.00,028.9,026.8,000.0,037.4,030.5,31.0,0000.1,0018.12,0011.17,0010.45
2023-07-16 15:50:00,SystemResetWarning,0836.1,5.00,000.00,029.0,027.1,000.0,037.4,030.6,30.6,0000.2,0018.04,0011.27,0010.53
2023-07-16 15:51:00,SystemResetWarning,0836.2,5.00,000.00,029.0,027.3,000.0,037.4,030.6,30.5,0000.3,0018.14,0011.43,0010.68
2023-07-16 15:52:00,SystemResetWarning,0836.2,5.00,000.00,029.0,027.5,000.0,037.4,030.7,30.3,0000.5,0018.70,0011.59,0010.84
2023-07-16 15:53:00,SystemResetWarning,0836.2,4.99,000.00,029.1,027.7,000.0,037.5,030.8,30.4,0000.7,0018.41,0011.80,0010.99
2023-07-16 15:54:00,SystemResetWarning,0836.2,4.98,000.00,029.1,027.9,000.0,037.5,030.8,30.5,0000.7,0018.75,0012.08,0011.20
2023-07-16 15:55:00,SystemResetWarning,0836.2,5.00,000.00,029.1,027.2,000.0,037.4,030.8,30.2,0000.8,0018.98,0012.28,0011.39
2023-07-16 15:56:00,SystemResetWarning,0836.2,5.00,000.00,029.1,025.6,000.0,037.3,030.5,30.6,0000.9,0019.26,0012.51,0011.58
2023-07-16 15:57:00,SystemResetWarning,0836.1,5.00,000.00,029.0,025.0,000.0,037.2,030.3,31.1,0000.9,0019.84,0012.70,0011.75
2023-07-16 15:58:00,SystemResetWarning,0836.1,5.02,000.00,028.9,025.3,000.0,037.2,030.2,30.4,0000.9,0019.95,0012.87,0011.92
2023-07-16 15:59:00,SystemResetWarning,0836.1,5.00,000.00,028.9,025.6,000.0,037.3,030.2,31.1,0000.8,0020.42,0012.98,0012.04
